TimeEST,TemperatureF,Dew PointF,Humidity,Sea Level PressureIn,VisibilityMPH,Wind Direction,Wind SpeedMPH,Gust SpeedMPH,PrecipitationIn,Events,Conditions,WindDirDegrees,DateUTC
12:15 AM,52.7,46.8,80,29.68,10.0,SSW,12.7,26.5,N/A,,Clear,200,2013-01-12 05:15:00
12:35 AM,52.7,46.6,80,29.66,10.0,South,16.1,31.1,N/A,,Clear,190,2013-01-12 05:35:00
12:55 AM,52.7,46.8,80,29.67,10.0,SSW,18.4,26.5,N/A,,Clear,200,2013-01-12 05:55:00
1:15 AM,52.7,46.8,80,29.68,10.0,SSW,20.7,26.5,N/A,,Clear,200,2013-01-12 06:15:00
1:34 AM,52.7,46.6,80,29.68,10.0,SSW,21.9,31.1,N/A,,Clear,200,2013-01-12 06:34:00
1:55 AM,52.7,46.8,80,29.68,10.0,South,17.3,25.3,N/A,,Scattered Clouds,190,2013-01-12 06:55:00
2:15 AM,52.5,46.6,80,29.68,10.0,SSW,23.0,31.1,N/A,,Clear,200,2013-01-12 07:15:00
2:35 AM,51.4,45.5,80,29.69,10.0,SSW,18.4,26.5,N/A,,Clear,200,2013-01-12 07:35:00
2:55 AM,52.5,46.4,80,29.70,10.0,South,18.4,28.8,N/A,,Clear,190,2013-01-12 07:55:00
3:15 AM,52.7,46.4,79,29.68,10.0,South,23.0,28.8,N/A,,Clear,190,2013-01-12 08:15:00
3:35 AM,51.6,45.5,80,29.69,10.0,SSW,18.4,26.5,N/A,,Clear,200,2013-01-12 08:35:00
3:55 AM,51.4,45.5,80,29.69,10.0,SSW,17.3,28.8,N/A,,Clear,200,2013-01-12 08:55:00
4:15 AM,51.3,45.3,80,29.68,10.0,South,16.1,25.3,N/A,,Clear,190,2013-01-12 09:15:00
4:35 AM,50.2,44.6,81,29.67,10.0,SSW,18.4,26.5,N/A,,Clear,200,2013-01-12 09:35:00
4:55 AM,50.2,44.6,81,29.67,10.0,SSW,19.6,27.6,N/A,,Clear,200,2013-01-12 09:55:00
5:15 AM,50.2,44.6,81,29.66,10.0,SSW,17.3,24.2,N/A,,Clear,200,2013-01-12 10:15:00
5:35 AM,50.2,44.6,81,29.66,10.0,South,21.9,28.8,N/A,,Clear,190,2013-01-12 10:35:00
5:55 AM,50.2,44.2,80,29.66,10.0,South,19.6,31.1,N/A,,Clear,190,2013-01-12 10:55:00
6:15 AM,50.2,43.9,79,29.66,10.0,SSW,19.6,28.8,N/A,,Clear,200,2013-01-12 11:15:00
6:35 AM,50.2,43.7,78,29.66,10.0,South,21.9,28.8,N/A,,Clear,190,2013-01-12 11:35:00
6:55 AM,51.4,44.6,77,29.66,10.0,SSW,17.3,26.5,N/A,,Clear,200,2013-01-12 11:55:00
7:15 AM,51.4,44.6,77,29.66,10.0,SSW,16.1,26.5,N/A,,Clear,200,2013-01-12 12:15:00
7:36 AM,50.7,43.9,77,29.66,10.0,South,20.7,31.1,N/A,,Clear,190,2013-01-12 12:36:00
7:55 AM,51.4,44.4,77,29.67,10.0,SSW,20.7,31.1,N/A,,Clear,200,2013-01-12 12:55:00
8:15 AM,50.2,43.3,77,29.69,10.0,SSW,19.6,28.8,N/A,,Clear,200,2013-01-12 13:15:00
8:35 AM,50.2,43.3,77,29.70,10.0,SSW,17.3,28.8,N/A,,Clear,200,2013-01-12 13:35:00
8:55 AM,50.2,43.3,77,29.71,10.0,SSW,23.0,29.9,N/A,,Clear,210,2013-01-12 13:55:00
9:15 AM,50.2,43.3,77,29.73,10.0,SSW,18.4,28.8,N/A,,Clear,210,2013-01-12 14:15:00
9:35 AM,50.5,43.0,75,29.74,10.0,SSW,23.0,33.4,N/A,,Clear,210,2013-01-12 14:35:00
9:55 AM,50.2,42.8,76,29.74,10.0,SSW,21.9,31.1,N/A,,Clear,210,2013-01-12 14:55:00
10:15 AM,50.2,42.8,76,29.75,10.0,SSW,21.9,31.1,N/A,,Clear,210,2013-01-12 15:15:00
10:35 AM,50.2,43.0,76,29.76,10.0,SSW,23.0,29.9,N/A,,Clear,210,2013-01-12 15:35:00
10:55 AM,50.2,42.8,76,29.77,10.0,SW,18.4,26.5,N/A,,Clear,220,2013-01-12 15:55:00
11:15 AM,50.2,42.3,74,29.79,10.0,SW,21.9,27.6,N/A,,Clear,220,2013-01-12 16:15:00
11:35 AM,50.2,42.6,75,29.79,10.0,SW,18.4,31.1,N/A,,Clear,220,2013-01-12 16:35:00
11:55 AM,47.7,39.7,74,29.79,10.0,SW,17.3,24.2,N/A,,Clear,220,2013-01-12 16:55:00
12:15 PM,47.7,36.0,64,29.81,10.0,SW,17.3,24.2,N/A,,Clear,230,2013-01-12 17:15:00
12:35 PM,45.1,33.4,64,29.82,10.0,SW,16.1,24.2,N/A,,Clear,230,2013-01-12 17:35:00
12:55 PM,44.4,32.9,64,29.84,10.0,SW,16.1,26.5,N/A,,Clear,230,2013-01-12 17:55:00
1:15 PM,44.2,32.4,63,29.83,10.0,WSW,16.1,23.0,N/A,,Clear,240,2013-01-12 18:15:00
1:35 PM,43.9,32.5,64,29.84,10.0,WSW,15.0,-,N/A,,Clear,240,2013-01-12 18:35:00
1:55 PM,42.8,32.9,68,29.84,10.0,SW,12.7,-,N/A,,Clear,230,2013-01-12 18:55:00
2:15 PM,42.4,32.5,68,29.85,10.0,WSW,13.8,20.7,N/A,,Clear,240,2013-01-12 19:15:00
2:35 PM,41.4,31.5,68,29.86,10.0,WSW,15.0,20.7,N/A,,Clear,240,2013-01-12 19:35:00
2:55 PM,41.4,31.5,68,29.87,10.0,SW,13.8,-,N/A,,Clear,230,2013-01-12 19:55:00
3:15 PM,41.2,31.8,69,29.87,10.0,SW,15.0,20.7,N/A,,Clear,230,2013-01-12 20:15:00
3:35 PM,41.4,31.1,67,29.89,10.0,WSW,16.1,20.7,N/A,,Clear,240,2013-01-12 20:35:00
3:55 PM,40.1,30.4,68,29.90,10.0,SW,13.8,20.7,N/A,,Clear,230,2013-01-12 20:55:00
4:15 PM,40.1,30.7,69,29.89,10.0,WSW,11.5,17.3,N/A,,Clear,250,2013-01-12 21:15:00
4:35 PM,40.1,32.0,73,29.90,10.0,West,6.9,-,N/A,,Clear,260,2013-01-12 21:35:00
4:55 PM,40.1,31.8,72,29.91,10.0,WSW,9.2,-,N/A,,Clear,250,2013-01-12 21:55:00
5:15 PM,39.2,30.2,70,29.91,10.0,WSW,9.2,-,N/A,,Clear,250,2013-01-12 22:15:00
5:35 PM,37.9,29.5,72,29.91,10.0,WSW,10.4,-,N/A,,Clear,250,2013-01-12 22:35:00
5:55 PM,37.6,28.2,69,29.93,10.0,WSW,11.5,-,N/A,,Mostly Cloudy,240,2013-01-12 22:55:00
6:14 PM,37.6,29.1,72,29.94,10.0,WSW,10.4,-,N/A,,Mostly Cloudy,240,2013-01-12 23:14:00
6:35 PM,37.6,28.4,69,29.93,10.0,WSW,11.5,-,N/A,,Overcast,240,2013-01-12 23:35:00
7:15 PM,37.6,27.9,68,29.93,10.0,WSW,6.9,-,N/A,,Overcast,250,2013-01-13 00:15:00
7:35 PM,37.6,27.7,67,29.92,10.0,WSW,10.4,-,N/A,,Overcast,250,2013-01-13 00:35:00
8:15 PM,36.9,24.6,61,29.92,10.0,West,4.6,-,N/A,,Mostly Cloudy,260,2013-01-13 01:15:00
8:55 PM,37.0,27.3,68,29.92,10.0,West,4.6,-,N/A,Rain,Light Rain,270,2013-01-13 01:55:00
9:15 PM,37.4,28.4,70,29.95,10.0,West,4.6,-,N/A,,Overcast,260,2013-01-13 02:15:00
9:35 PM,36.5,27.3,69,29.95,10.0,West,5.8,-,N/A,,Overcast,260,2013-01-13 02:35:00
9:55 PM,35.1,25.5,68,29.95,7.0,West,4.6,-,N/A,Snow,Light Snow,270,2013-01-13 02:55:00
10:15 PM,35.1,25.7,69,29.95,7.0,West,3.5,-,N/A,Snow,Light Snow,270,2013-01-13 03:15:00
10:35 PM,35.1,26.1,70,29.95,7.0,WNW,5.8,-,N/A,Snow,Light Snow,290,2013-01-13 03:35:00
10:55 PM,35.1,26.4,71,29.95,10.0,WNW,9.2,-,N/A,,Overcast,300,2013-01-13 03:55:00
11:15 PM,35.1,26.4,71,29.94,10.0,WNW,6.9,-,N/A,Snow,Snow,290,2013-01-13 04:15:00
11:35 PM,35.1,26.6,71,29.93,10.0,NW,3.5,-,N/A,Rain,Light Rain,320,2013-01-13 04:35:00
11:54 PM,35.1,28.8,78,29.91,7.0,NNW,6.9,-,N/A,Snow,Light Snow,330,2013-01-13 04:54:00